Regional Weather Roundup
Issued by NWS

Home | Current Version | Previous Version | Graphics & Text | Print | Product List | Glossary On
Versions: 1 2 3 4 5 6 7 8 9 10 11 12 13 14 15 16 17 18 19 20 21 22 23 24 25 26 27 28 29 30 31 32 33 34 35 36 37 38 39 40 41 42 43 44 45 46 47 48 49 50
000
ASUS43 KIND 171459
RWRIN

WEATHER ROUNDUP FOR INDIANA
NATIONAL WEATHER SERVICE INDIANAPOLIS IN
1000 AM EST FRI NOV 17 2017

NOTE: "FAIR" INDICATES FEW OR NO CLOUDS BELOW 12,000 FEET WITH NO
SIGNIFICANT WEATHER AND/OR OBSTRUCTIONS TO VISIBILITY.

* - STATION DOES NOT REPORT WEATHER SUCH AS PRECIPITATION OR FOG.

+ - STATION NOT QUALITY CONTROLLED BY THE NATIONAL WEATHER SERVICE.
    USE DATA WITH CAUTION...ESPECIALLY DEWPOINT AND RELATIVE
    HUMIDITY OBSERVATIONS.

INZ001>003-010>013-019-020-171600-
NORTHWEST INDIANA

CITY           SKY/WX    TMP DP  RH WIND       PRES   REMARKS
GARY /AIRPORT/ PTSUNNY   39  32  75 SE8G26    30.10F WCI  34
KNOX *+        CLOUDY    36  32  87 SE21      30.13F WCI  24
LA PORTE +     CLOUDY    36  32  85 S16G23    30.13S WCI  26
MONTICELLO +   PTSUNNY   36  31  82 SE8G17    30.15F WCI  29
RENSSELAER +   CLOUDY    36  30  80 SE16      30.12F WCI  26

$$

LMZ046-743>745-171600-
SOUTHERN LAKE MICHIGAN

STATION/POSITION TIME  TEMP    WIND        PRES    WAVE
                       AIR SEA DIR/SP/G            HT
                 (UTC) (F)     (DEG/KT/KT) (MB)    (FT)
BURNS HARBOR     1440   37     170/ 10/ 17 1020.0F
MICHIGAN CITY    1430   36     140/ 12/ 18   N/A

$$

INZ004-005-014>016-021>024-171600-
NORTH CENTRAL INDIANA

CITY           SKY/WX    TMP DP  RH WIND       PRES   REMARKS
ELKHART        CLOUDY    37  30  75 SE12G17   30.15F WCI  30
GOSHEN         PTSUNNY   37  29  72 S13       30.14F WCI  29
PERU/GRISSOM   CLOUDY    37  33  85 SE12      30.16S WCI  30
SOUTH BEND     CLOUDY    36  32  85 S15       30.15S WCI  27
WARSAW +       CLOUDY    36  32  87 SE10G17   30.15F WCI  28

$$

INZ006>009-017-018-025>027-171600-
NORTHEAST INDIANA

CITY           SKY/WX    TMP DP  RH WIND       PRES   REMARKS
AUBURN +       CLOUDY    37  30  75 SE8       30.18F WCI  31
FORT WAYNE     CLOUDY    39  31  72 SE14      30.20F WCI  31
KENDALLVILLE + CLOUDY    36  31  83 SE16G22   30.16F WCI  26

$$

INZ028-029-035-036-043>045-051>053-171600-
WEST CENTRAL INDIANA

CITY           SKY/WX    TMP DP  RH WIND       PRES   REMARKS
CRAWFORDSVL +  CLOUDY    32  32  99 SE14      30.13F WCI  22
GREENCASTLE +  CLOUDY    32  30  93 SE10      30.16F WCI  24
LAFAYETTE      CLOUDY    36  32  85 SE10      30.14F WCI  28
TERRE HAUTE    CLOUDY    33  29  85 SE14      30.16F WCI  23

$$

INZ030>032-037>040-046>048-054>057-064-065-171600-
CENTRAL INDIANA

CITY           SKY/WX    TMP DP  RH WIND       PRES   REMARKS
ANDERSON       MOSUNNY  N/A N/A N/A SE12G17   30.20F
COLUMBUS       CLOUDY    32  30  93 SE14      30.22S WCI  22
INDIANAPOLIS   CLOUDY    36  30  79 SE15      30.18F WCI  27
-EAGLE CREEK   MOSUNNY   36  29  75 SE13      30.17F WCI  27
KOKOMO +       CLOUDY    38  31  76 SE13      30.17  WCI  30
MT COMFORT *+  CLOUDY    36  34  93 SE9       30.18F WCI  29
SHELBYVILLE    CLOUDY    37  30  75 SE14      30.19F WCI  28

$$

INZ033-034-041-042-049-050-058-059-171600-
EAST CENTRAL INDIANA

CITY           SKY/WX    TMP DP  RH WIND       PRES   REMARKS
MUNCIE         MOSUNNY   38  30  73 SE13      30.17F WCI  30
RICHMOND +     CLOUDY    34  32  93 SE10      30.22F WCI  26

$$

INZ060-061-067>069-081>083-085>088-171600-
SOUTHWEST INDIANA

CITY           SKY/WX    TMP DP  RH WIND       PRES   REMARKS
EVANSVILLE     CLOUDY    35  35 100 E9        30.17F FOG     WCI  28
HUNTINGBURG +  CLOUDY    35  33  92 SE10      30.18F WCI  27

$$

INZ062-063-066-070>080-084-089>092-171600-
SOUTH CENTRAL AND SOUTHEAST INDIANA

CITY           SKY/WX    TMP DP  RH WIND       PRES   REMARKS
BLOOMINGTON    PTSUNNY   35  30  82 SE12      30.17F WCI  27
MADISON *+     CLOUDY    36  32  87 SE7       30.23F WCI  30
SEYMOUR +      PTSUNNY   37  32  81 SE13      30.21F WCI  29

$$





USA.gov is the U.S. government's official web portal to all federal, state and local government web resources and services.